Pagina principală
METAR-TAF:

METAR-TAF

Aeroporturi :

Pacific Missile Test Facility Barking Sands

Kekaha, Hawaii, Statele Unite ale Americii

Latitudine: 22-02-11N, longitudine: 159-47-11W, elevație: 4 m

Observații meteo curente

Raportul a fost făcut în urmă cu 31 de minute, la 16:51 UTC
Vânt 6 kt de la Sud-est
Temperatură 25°C
Umiditate 74%
Presiune 1017 hPa
Vizibilitate: 16.1 km
Total acoperit la o înălțime de 5000 picior

METAR: PHBK 211651Z AUTO 14006KT 10SM OVC050 25/20 A3002 RMK AO2 SLP166 T02500200 $

Ora: 07:22 (17:22 UTC)


TAF: lipsă

Observații și prognoze meteo pentru peste 4.000 de aeroporturi (rapoarte METAR și TAF).

Stațiile disponibile sunt reprezentate pe hartă prin puncte galbene și roșii.

Țineți indicatorul mouse-ului pe punctul dorit pentru a vedea denumirea stației.

Apoi, faceți clic pentru a vedea observațiile și prognozele meteorologice.

Pentru a schimba harta: Pentru mărire, faceți clic pe butoanele verzi cu cruce neagră; pentru micșorare, pe butonul verde cu o liniuță; pentru hărți învecinate, pe săgețile verzi.


METAR-TAF: